This demonstration page uses our WeatherBlox Daily Observations layout. Learn more.

39.92423, -83.80882

Hourly Observations for July 4, 2020

Temp ( °F °C ) Dew Point ( °F °C ) Humidity (%) Winds ( mph kmh ) Pressure ( in mb ) Visibility ( mi km ) Precip ( " mm )
12:56 am 00:56 Clear 72 22.2 68 20 87 87 Calm 29.98 1015 10 16.0934 0 0
1:56 am 01:56 Clear 69 20.6 68 20 96 96 E 3 6 29.98 1015 10 16.0934 0 0
2:56 am 02:56 Clear 69 20.6 68 20 96 96 Calm 29.97 1015 10 16.0934 0 0
3:56 am 03:56 Clear 68 20 68 20 100 100 Calm 29.96 1015 10 16.0934 0 0
4:56 am 04:56 Clear 68 20 67 19.4 96 96 NNE 3 6 29.97 1015 10 16.0934 0 0
5:56 am 05:56 Clear 67 19.4 67 19.4 100 100 Calm 29.97 1015 10 16.0934 0 0
6:56 am 06:56 Sunny 69 20.6 68 20 96 96 Calm 29.98 1015 8 12.87472 0 0
7:56 am 07:56 Sunny 73 22.8 70 21.1 90 90 ENE 3 6 29.98 1015 9 14.48406 0 0
8:56 am 08:56 Sunny 79 26.1 69 20.6 72 72 ENE 5 7 30 1016 10 16.0934 0 0
9:56 am 09:56 Sunny 84 28.9 69 20.6 61 61 E 6 9 30 1016 10 16.0934 0 0
10:56 am 10:56 Sunny 87 30.6 70 21.1 57 57 ESE 7 11 30 1016 10 16.0934 0 0
11:56 am 11:56 Sunny 88 31.1 68 20 52 52 E 6 9 30 1016 10 16.0934 0 0
12:56 pm 12:56 Mostly Cloudy 89 31.7 67 19.4 48 48 VRB 7 11 30 1016 10 16.0934 0 0
1:56 pm 13:56 Mostly Cloudy 90 32.2 67 19.4 47 47 VRB 5 7 29.99 1016 10 16.0934 0 0
2:56 pm 14:56 Mostly Sunny 92 33.3 66 18.9 43 43 E 9 15 29.97 1015 10 16.0934 0 0
3:56 pm 15:56 Mostly Sunny 92 33.3 65 18.3 41 41 VRB 5 7 29.96 1015 10 16.0934 0 0
4:56 pm 16:56 Mostly Sunny 91 32.8 65 18.3 42 42 VRB 6 9 29.95 1014 10 16.0934 0 0
5:56 pm 17:56 Cloudy 91 32.8 64 17.8 41 41 SW 5 7 29.94 1014 10 16.0934 0 0
6:56 pm 18:56 Mostly Cloudy 85 29.4 69 20.6 59 59 ENE 8 13 29.94 1014 10 16.0934 0 0
7:56 pm 19:56 Mostly Cloudy 80 26.7 69 20.6 69 69 NNE 14 22 29.94 1014 10 16.0934 0 0
8:47 pm 20:47 Cloudy with Nearby Thunderstorms 79 26 70 21 74 74 N 16 26 29.94 1014 10 16.0934 0 0
8:56 pm 20:56 Cloudy 78 25.6 70 21.1 76 76 NNE 12 19 29.97 1015 10 16.0934 0 0
9:21 pm 21:21 Windy with Storms Likely 73 23 70 21 89 89 NNE 25 41 29.95 1014 8 12.87472 0.02 0.508
9:38 pm 21:38 Cloudy with Heavy Rain 72 22 70 21 94 94 N 18 30 29.95 1014 6 9.65604 0.06 1.524
9:56 pm 21:56 Cloudy with Rain 73 22.8 69 20.6 87 87 NNE 6 9 29.96 1015 9 14.48406 0.15 3.81
10:56 pm 22:56 Mostly Cloudy 74 23.3 72 22.2 94 94 NE 5 7 29.96 1015 10 16.0934 0.08 2.032
11:56 pm 23:56 Cloudy with Mist and Fog 74 23.3 73 22.8 97 97 NNE 6 9 29.98 1015 2.5 4.02335 0 0

Powered by AerisWeather